Weather History for Guatemala Aeropuertola Aurora, Guatemala

Change the Weather History Date:

Friday, August 2, 2013

  Actual Average Record
Temperature  
Mean Temperature 69 °F -  
Max Temperature 77 °F 75 °F - ()
Min Temperature 61 °F 60 °F - ()
Cooling Degree Days 4    
Growing Degree Days 19 (Base 50)    
Moisture  
Dew Point 60 °F    
Average Humidity 77    
Maximum Humidity 94    
Minimum Humidity 46    
Precipitation  
Precipitation 0.00 in - - ()
Sea Level Pressure  
Sea Level Pressure 30.25 in    
Wind  
Wind Speed 8 mph ()    
Max Wind Speed 14 mph    
Max Gust Speed -    
Visibility 6.1 miles    
Events Thunderstorm    
T = Trace of Precipitation, MM = Missing Value Source: Averaged Metar Reports

Daily Weather History Graph

Daily Weather History Graph

Search for Another Location

Airport:

Trip Planner

Search our weather history database for the weather conditions in past years. The results will help you decide how hot, cold, wet, or windy it might be!

Date:

Astronomy

Aug. 02, 2013 Rise Set
Actual Time 5:45 AM CST 6:30 PM CST
Civil Twilight 5:23 AM CST 6:53 PM CST
Nautical Twilight 4:56 AM CST 7:19 PM CST
Astronomical Twilight 4:29 AM CST 7:46 PM CST
Moon 2:13 AM CST (8/2) 3:21 PM CST (8/2)
Length of Visible Light 13h 30m
Length of Day
12h 45m
Waning Crescent, 15% of the Moon is Illuminated
Aug 2
Waning Crescent
Aug 6
New
Aug 14
First Quarter
Aug 20
Full
Aug 28
Last Quarter

Hourly Weather History & Observations

Time (CST) Temp. Dew Point Humidity Pressure Visibility Wind Dir Wind Speed Gust Speed Precip Events Conditions
12:00 AM 64.4 °F 60.8 °F 88% 30.33 in 6.2 mi NNE 5.8 mph - N/A   Scattered Clouds
1:00 AM 64.4 °F 60.8 °F 88% 30.30 in 6.2 mi North 4.6 mph - N/A   Partly Cloudy
1:17 AM - - N/A% - 6.2 mi North 4.6 mph - N/A   Mostly Cloudy
2:00 AM 64.4 °F 60.8 °F 88% 30.30 in 6.2 mi North 4.6 mph - N/A   Mostly Cloudy
3:00 AM 62.6 °F 60.8 °F 94% 30.27 in 6.2 mi North 9.2 mph - N/A   Mostly Cloudy
4:00 AM 62.6 °F 60.8 °F 94% 30.24 in 6.2 mi North 9.2 mph - N/A   Mostly Cloudy
5:00 AM 62.6 °F 60.8 °F 94% 30.24 in 6.2 mi NNE 13.8 mph - N/A   Mostly Cloudy
6:00 AM 62 °F 59 °F 88% 29.95 in 25 mi North 11.5 mph - -   Overcast
6:00 AM 62.6 °F 59.0 °F 88% 30.27 in 6.2 mi North 11.5 mph - N/A   Mostly Cloudy
7:00 AM 62.6 °F 59.0 °F 88% 30.30 in 6.2 mi NNE 9.2 mph - N/A   Mostly Cloudy
8:00 AM 66.2 °F 59.0 °F 78% 30.30 in 6.2 mi North 11.5 mph - N/A   Scattered Clouds
9:00 AM 69.8 °F 59.0 °F 68% 30.30 in 6.2 mi North 11.5 mph - N/A   Scattered Clouds
10:00 AM 71.6 °F 59.0 °F 64% 30.30 in 6.2 mi North 11.5 mph - N/A   Partly Cloudy
11:00 AM 73.4 °F 59.0 °F 61% 30.30 in 6.2 mi North 9.2 mph - N/A   Scattered Clouds
12:00 PM 76 °F 59 °F 46% 29.92 in 25 mi NNE 11.5 mph - -   Partly Cloudy
12:00 PM 77.0 °F 59.0 °F 54% 30.27 in 6.2 mi NNE 11.5 mph - N/A   Partly Cloudy
1:00 PM 77.0 °F 59.0 °F 54% 30.27 in 5.0 mi North 11.5 mph - N/A   Partly Cloudy
1:14 PM - - N/A% - 5.0 mi NE 11.5 mph - N/A Thunderstorm Thunderstorm
2:00 PM 75.2 °F 59.0 °F 57% 30.24 in 6.2 mi NE 11.5 mph - N/A   Partly Cloudy
2:43 PM - - N/A% - 6.2 mi South 6.9 mph - N/A   Partly Cloudy
3:00 PM 68.0 °F 62.6 °F 83% 30.24 in 6.2 mi South 11.5 mph - N/A Thunderstorm Thunderstorm
4:00 PM 69.8 °F 62.6 °F 78% 30.21 in 6.2 mi South 6.9 mph - N/A   Scattered Clouds
5:00 PM 68.0 °F 62.6 °F 83% 30.21 in 6.2 mi South 6.9 mph - N/A   Scattered Clouds
6:00 PM 68.0 °F 60.8 °F 78% 30.24 in 6.2 mi SW 4.6 mph - N/A   Scattered Clouds
7:00 PM 68.0 °F 62.6 °F 83% 30.27 in 6.2 mi Variable 3.5 mph - N/A   Mostly Cloudy
8:00 PM 69.8 °F 59.0 °F 68% 30.30 in 6.2 mi NNE 4.6 mph - N/A   Scattered Clouds
9:00 PM 68.0 °F 59.0 °F 73% 30.33 in 6.2 mi North 6.9 mph - N/A   Scattered Clouds
10:00 PM 66.2 °F 60.8 °F 83% 30.33 in 6.2 mi North 11.5 mph - N/A   Partly Cloudy
11:00 PM 64.4 °F 60.8 °F 88% 30.33 in 6.2 mi North 11.5 mph - N/A   Partly Cloudy